Showing default

SPACEMOBILE-003, 61045

Orbit data source: Space-Track

SPACEMOBILE-003, 61045 is a payload satellite owned by AST & Science (US) in LEO that was launched on Thu, 12 Sep 2024 UTC via an FALCON 9 launch vehicle from the Air Force Eastern Test Range (AFETR). Payload-class satellites include a variety of spacecraft equipped with specific instruments for various scientific and technological missions. These include communications satellites like Starlink; space stations such as the ISS; scientific satellites like the Hubble; Earth observation satellites from companies like Planet Labs, Umbra, and HawkEye 360; GPS; miniature CubeSats for education and research; and military/defense satellites.

Loading next visibility...
Identifier
61045, 2024-163A
Orbit
LEO
Last TLE update
16 hours ago
Origin
Manufacturer
AST & Science
Mission
Operational Commercial Communications
Bus & Motor
BW3, Unknown motor
Mass
1,500 kg wet, 1,500 kg dry
Launch date (UTC)
2024-09-12 (10 months ago)
Launch vehicle
FALCON 9
Launch site
Air Force Eastern Test Range (AFETR)
Object type
Payload
Rocket body
Debris
Shape & HBR
Box + 1 Plate, 9 m
Radar Cross Section
1.500 m², Large (>1 m²)

Expand to show TLE details & history

TLE from 16 hours ago
0 SPACEMOBILE-003
1 61045U 24163A   25182.56204636  .00003068  00000-0  15372-3 0  9990
2 61045  52.9706 121.9411 0011193 135.7674 224.4217 15.20382956 44410
Epoch: 2025-07-01T13:29Z
TLE epoch observation values (Epoch: 2025-07-01T13:29:20.805Z)
Latitude
0.00001°
Longitude
-0.2513°
Altitude
511.067 km
Speed
7.607 km/s
True Right ascension
08h 07m 45s
True Declination
0° 00' 00"
Sunlit
Object was in daylight at epoch
Visualization orbit readout
Latitude
41.62384°
Longitude
134.8163°
Altitude
501.114 km
Speed
7.623 km/s
Apparent Right ascension
13h 08m 33s
Apparent Declination
41° 10' 27"
Sunlit
Object is in partial shadow
Visualization observer readout
Local Sidereal Time
17:30:06
Azimuth
293.938° NW
Elevation
41.52°
Doppler factor
1
Orbital elements
Apogee altitude
512.675 km
Perigee altitude
497.266 km
Semi-major axis
6,883.107 km
Eccentricity
0.00112
Inclination
52.9706°
RAAN
121.9411°
Arg. of periapsis
135.7674°
True anomaly
Unknown
Mean anomaly
224.4217°
Eccentric anomaly
Unknown
Mean motion
3.80072 °/min
Orbital period
94.72 mins
BSTAR
0.00015372
Loading maneuver chart data...
Loading SW <> Apogee altitude chart data...
Loading historical data...
Loading historical data...
Loading historical data...
Loading historical data...
Loading historical data...
Loading historical data...
Loading historical data...

SPACEMOBILE-003 Visibility forecast

Observer location: undefined°, undefined°

Span
Click to sort rows by Start time (UTC) header in descending order
Start Az.
Max El. time (UTC)
Max El. Az.
Max El.
End time (UTC)
End Az.
4 mins2025-07-02 05:48:28.851Z292.914° NW2025-07-02 05:49:28.851Z243.406° WSW43.036°2025-07-02 05:52:28.851Z140.575° SSE
6 mins2025-07-02 22:49:28.851Z245.457° WSW2025-07-02 22:51:28.851Z284.395° WNW40.062°2025-07-02 22:55:28.851Z44.504° NE
4 mins2025-07-03 03:49:28.851Z356.197° N2025-07-03 03:50:28.851Z18.512° NNE20.822°2025-07-03 03:53:28.851Z75.094° E
5 mins2025-07-03 05:27:28.851Z299.772° NW2025-07-03 05:29:28.851Z236.308° WSW42.57°2025-07-03 05:32:28.851Z142.075° SSE
|